カタログに戻る

COSMOS 970 DEB

運用中LEO
NORAD 10890·DEBRIS·🇷🇺 Russia

打ち上げ Dec 21, 1977 から Baikonur Cosmodrome

Loading…

次のパス (今後24時間)

TLE

最新Source: Space-Track

元期: Sep 14, 2026, 08:36 UTC

1 10890U 77121AM  26257.35885310  .00000148  00000-0  23608-3 0  9996
2 10890  65.7788  20.2373 0141197 303.4483  87.4932 13.71438136431745

AllMySatでCOSMOS 970 DEBをリアルタイム追跡

Download on the App Store